This demonstration page uses our WeatherBlox Daily Observations layout. Learn more.

Left ArrowRight Arrow

Hourly Observations for July 25, 2015

Temp ( °F °C ) Dew Point ( °F °C ) Humidity (%) Winds ( mph kmh ) Pressure ( in mb ) Visibility ( mi km ) Precip ( " mm )
12:53 am 00:53 Clear 85 29.4 65 18.3 51 51 SSE 14 22 29.84 1010 10 16 0.00 0.00
1:53 am 01:53 Clear 83 28.3 65 18.3 55 55 SE 13 20 29.83 1010 10 16 0.00 0.00
2:53 am 02:53 Clear 82 27.8 64 17.8 55 55 SE 9 15 29.84 1011 10 16 0.00 0.00
3:53 am 03:53 Clear 80 26.7 64 17.8 58 58 ESE 10 17 29.83 1010 10 16 0.00 0.00
4:53 am 04:53 Clear 78 25.6 64 17.8 62 62 ESE 12 19 29.83 1010 10 16 0.00 0.00
5:53 am 05:53 Clear 77 25 64 17.8 64 64 SE 9 15 29.83 1010 10 16 0.00 0.00
6:53 am 06:53 Clear 77 25 64 17.8 64 64 SE 12 19 29.84 1010 10 16 0.00 0.00
7:53 am 07:53 Sunny 77 25 65 18.3 66 66 SE 10 17 29.84 1011 10 16 0.00 0.00
8:53 am 08:53 Sunny 81 27.2 65 18.3 58 58 SE 15 24 29.85 1011 10 16 0.00 0.00
9:53 am 09:53 Sunny 84 28.9 66 18.9 55 55 SSE 10 17 29.86 1011 10 16 0.00 0.00
10:53 am 10:53 Sunny 89 31.7 66 18.9 47 47 SE 8 13 29.85 1011 10 16 0.00 0.00
11:53 am 11:53 Sunny 93 33.9 65 18.3 40 40 VRB 5 7 29.84 1010 10 16 0.00 0.00
12:53 pm 12:53 Sunny 95 35 64 17.8 36 36 VRB 3 6 29.82 1010 10 16 0.00 0.00
1:53 pm 13:53 Sunny 98 36.7 62 16.7 31 31 Calm 29.79 1009 10 16 0.00 0.00
2:53 pm 14:53 Sunny 102 38.9 60 15.6 25 25 E 5 7 29.76 1008 10 16 0.00 0.00
3:53 pm 15:53 Sunny 103 39.4 58 14.4 23 23 ENE 8 13 29.73 1007 10 16 0.00 0.00
4:53 pm 16:53 Sunny 102 38.9 56 13.3 22 22 Calm 29.72 1006 10 16 0.00 0.00
5:53 pm 17:53 Sunny 104 40 55 12.8 20 20 NW 6 9 29.69 1006 10 16 0.00 0.00
6:53 pm 18:53 Sunny 104 40 53 11.7 18 18 ENE 9 15 29.67 1005 10 16 0.00 0.00
7:53 pm 19:53 Mostly Sunny 102 38.9 57 13.9 23 23 E 10 17 29.69 1005 10 16 0.00 0.00
8:53 pm 20:53 Sunny 98 36.7 56 13.3 24 24 E 13 20 29.70 1006 10 16 0.00 0.00
9:24 pm 21:24 Mostly Cloudy 97 36 61 16 30 30 SSE 15 24 29.62 1003 10 16 0.00 0.00
9:53 pm 21:53 Mostly Clear 94 34.4 59 15 31 31 SSE 13 20 29.74 1007 10 16 0.00 0.00
10:53 pm 22:53 Clear 90 32.2 60 15.6 37 37 S 16 26 29.78 1008 10 16 0.00 0.00
11:53 pm 23:53 Clear 84 28.9 61 16.1 46 46 SSW 9 15 29.79 1009 10 16 0.00 0.00

Powered by AerisWeather